User: anonymous   Login
Location: ??????
(55.0357°N, 38.6195°E)
Time: 00:08:53
(UTC+00:00)
Language:

IDEFIX/ARIANE 42P - Orbit

View from above orbital plane
View from above orbital plane
View from above satellite
View from above satellite

Ground track
Ground track

The orbit data is extracted from the following two-line orbital elements,

1 27422U 02021B   24175.44735004  .00000341  00000-0  14830-3 0  9995
2 27422  98.5276 113.0068 0011034 221.7403 138.2939 14.30143497154767
Epoch (UTC): 23 June 2024 10:44:11
Eccentricity: 0.0011034
inclination: 98.5276°
perigee height: 783 km
apogee height: 799 km
right ascension of ascending node: 113.0068°
argument of perigee: 221.7403°
revolutions per day: 14.30143497
mean anomaly at epoch: 138.2939°
orbit number at epoch: 15476

The dashed part of the orbit path shows where the satellite is in the earth's shadow,  

DLR